This is the latest recevied weather packets stored in our database for station/object AK4NG. If no packets are shown the sender has not sent any weather packets the latest 10 day(s).
| Time | Temp. | Humidity | Pressure | Rain* | Wind** | Luminosity | Snow |
|---|---|---|---|---|---|---|---|
| 1777392068 | 22.78° C | 81% | 1022.8 hPa | 0 mm | - | 43 W/m² | - |
| 1777391762 | 22.78° C | 80% | 1022.6 hPa | 0 mm | - | 68 W/m² | - |
| 1777391459 | 22.78° C | 79% | 1022.2 hPa | 0 mm | - | 132 W/m² | - |
| 1777391156 | 22.78° C | 78% | 1022.1 hPa | 0 mm | - | 227 W/m² | - |
| 1777390851 | 22.78° C | 79% | 1021.8 hPa | 0 mm | - | 244 W/m² | - |
| 1777390549 | 22.78° C | 79% | 1022 hPa | 0 mm | - | 220 W/m² | - |
| 1777390245 | 22.78° C | 79% | 1021.7 hPa | 0 mm | - | 244 W/m² | - |
| 1777389941 | 22.78° C | 80% | 1021.6 hPa | 0 mm | - | 262 W/m² | - |
| 1777389638 | 22.78° C | 80% | 1021.7 hPa | 0 mm | - | 211 W/m² | - |
| 1777389335 | 22.78° C | 79% | 1021.6 hPa | 0 mm | - | 248 W/m² | - |
| 1777389033 | 22.78° C | 79% | 1021.7 hPa | 0 mm | - | 230 W/m² | - |
| 1777388730 | 22.78° C | 80% | 1021.5 hPa | 0 mm | - | 237 W/m² | - |
| 1777388426 | 22.22° C | 81% | 1021.5 hPa | 0 mm | - | 301 W/m² | - |
| 1777388126 | 21.67° C | 82% | 1021.5 hPa | 0 mm | - | 245 W/m² | - |
| 1777387822 | 21.67° C | 81% | 1021.5 hPa | 0 mm | - | 201 W/m² | - |
| 1777387519 | 21.67° C | 83% | 1021.4 hPa | 0 mm | - | 213 W/m² | - |
| 1777387215 | 22.22° C | 81% | 1021.4 hPa | 0 mm | - | 209 W/m² | - |
| 1777386910 | 22.22° C | 80% | 1021.4 hPa | 0 mm | - | 214 W/m² | - |
| 1777386608 | 22.22° C | 81% | 1021.1 hPa | 0 mm | - | 286 W/m² | - |
| 1777386304 | 21.67° C | 82% | 1021.3 hPa | 0 mm | - | 400 W/m² | - |
| 1777386001 | 21.67° C | 85% | 1021.3 hPa | 0 mm | - | 366 W/m² | - |
| 1777385698 | 21.11° C | 85% | 1021.3 hPa | 0 mm | - | 344 W/m² | - |
| 1777385395 | 21.11° C | 85% | 1021.3 hPa | 0 mm | - | 257 W/m² | - |
| 1777385092 | 20.56° C | 86% | 1021.5 hPa | 0 mm | - | 270 W/m² | - |
| 1777384788 | 20.56° C | 86% | 1021.8 hPa | 0 mm | - | 188 W/m² | - |
* Rain latest hour (hover to see other rain measurements)
** Current wind speed in m/s (hover to see current wind gust speed)